McConnell AFB, KS

10:57 PM CDT on April 23, 2018 (GMT -0500)
McConnell Air Force Base

Weather History for KIAB - January, 2014

Change the Weather History Date:

Sunday, January 5, 2014

  Actual Average Record
Temperature  
Mean Temperature 12 °F -  
Max Temperature 17 °F 43 °F 60 °F (2012)
Min Temperature 5 °F 23 °F 5 °F (2014)
Degree Days  
Heating Degree Days 54    
Moisture  
Dew Point 9 °F    
Average Humidity 84    
Maximum Humidity 100    
Minimum Humidity 49    
Precipitation  
Precipitation 0.00 in - - ()
Sea Level Pressure  
Sea Level Pressure 30.20 in    
Wind  
Wind Speed 21 mph (North)    
Max Wind Speed 29 mph    
Max Gust Speed 36 mph    
Visibility 5 miles    
Events Snow    
Averages and records for this station are not official NWS values.
T = Trace of Precipitation, MM = Missing Value Source: NWS Daily Summary

Daily Weather History Graph

Daily Weather History Graph

Search for Another Location

Airport or City:

Astronomy

Jan. 05, 2014 Rise Set
Actual Time 7:44 AM CST 5:24 PM CST
Civil Twilight 7:15 AM CST 5:53 PM CST
Nautical Twilight 6:42 AM CST 6:26 PM CST
Astronomical Twilight 6:11 AM CST 6:58 PM CST
Moon 10:32 AM CST (1/5) 10:47 PM CST (1/5)
Length of Visible Light 10h 38m
Length of Day
9h 40m
Waxing Crescent, 25% of the Moon is Illuminated
Jan 5
Waxing Crescent
Jan 7
First Quarter
Jan 15
Full
Jan 23
Last Quarter
Jan 30
New

Hourly Weather History & Observations

Time (CST) Temp. Windchill Dew Point Humidity Pressure Visibility Wind Dir Wind Speed Gust Speed Precip Events Conditions
12:08 AM 17.6 °F 0.5 °F 15.8 °F 93% 30.03 in 2.0 mi NNE 21.9 mph 29.9 mph N/A Snow Light Snow
12:13 AM 17.6 °F 0.9 °F 15.8 °F 93% 30.04 in 1.8 mi NNE 20.7 mph 29.9 mph N/A Snow Light Snow
12:18 AM 17.6 °F 1.3 °F 15.8 °F 93% 30.04 in 1.8 mi NNE 19.6 mph 27.6 mph N/A Snow Light Snow
12:20 AM 15.8 °F -2.7 °F 15.8 °F 100% 30.04 in 1.5 mi NNE 24.2 mph 32.2 mph N/A Snow Light Snow
12:35 AM 15.8 °F -2.3 °F 15.8 °F 100% 30.04 in 2.5 mi NNE 23.0 mph 28.8 mph N/A Snow Light Snow
12:40 AM 15.8 °F -1.9 °F 15.8 °F 100% 30.04 in 3.0 mi NNE 21.9 mph 28.8 mph N/A Snow Light Snow
12:58 AM 16.9 °F -0.1 °F 16.0 °F 96% 30.09 in 3.0 mi NNE 20.7 mph 29.9 mph 0.00 in Snow Light Snow
1:03 AM 17.6 °F 0.9 °F 15.8 °F 93% 30.04 in 3.0 mi North 20.7 mph 26.5 mph N/A Snow Light Snow
1:08 AM 17.6 °F 0.9 °F 15.8 °F 93% 30.05 in 2.5 mi NNE 20.7 mph 26.5 mph N/A Snow Light Snow
1:18 AM 17.6 °F 0.9 °F 15.8 °F 93% 30.04 in 3.0 mi North 20.7 mph 26.5 mph N/A Snow Light Snow
1:23 AM 17.6 °F 0.5 °F 15.8 °F 93% 30.05 in 3.0 mi North 21.9 mph 26.5 mph N/A Snow Light Snow
1:53 AM 17.6 °F -1.0 °F 15.8 °F 93% 30.02 in 2.5 mi NNE 26.5 mph 33.4 mph N/A Snow Light Snow
1:58 AM 15.8 °F -2.3 °F 15.8 °F 100% 30.08 in 2.0 mi NNE 23.0 mph 33.4 mph 0.00 in Snow Light Snow
2:03 AM 17.6 °F 2.7 °F 15.8 °F 93% 30.04 in 2.5 mi NNE 16.1 mph 32.2 mph N/A Snow Light Snow
2:08 AM 17.6 °F 3.2 °F 15.8 °F 93% 30.05 in 3.0 mi North 15.0 mph - N/A Snow Light Snow
2:13 AM 17.6 °F -0.6 °F 15.8 °F 93% 30.06 in 4.0 mi North 25.3 mph 27.6 mph N/A Snow Light Snow
2:23 AM 17.6 °F 0.9 °F 15.8 °F 93% 30.06 in 4.0 mi North 20.7 mph - N/A Snow Light Snow
2:38 AM 17.6 °F 2.2 °F 17.6 °F 100% 30.05 in 4.0 mi North 17.3 mph - N/A Snow Light Snow
2:58 AM 17.6 °F 1.3 °F 15.8 °F 93% 30.12 in 4.0 mi North 19.6 mph 25.3 mph 0.00 in Snow Light Snow
3:08 AM 15.8 °F -3.1 °F 15.8 °F 100% 30.07 in 4.0 mi North 25.3 mph 31.1 mph N/A Snow Light Snow
3:13 AM 15.8 °F -0.6 °F 15.8 °F 100% 30.08 in 4.0 mi North 18.4 mph 31.1 mph N/A Snow Light Snow
3:23 AM 15.8 °F -3.1 °F 14.0 °F 93% 30.06 in 4.0 mi North 25.3 mph 31.1 mph N/A Snow Light Snow
3:28 AM 15.8 °F -0.6 °F 14.0 °F 93% 30.05 in 4.0 mi North 18.4 mph 31.1 mph N/A Snow Light Snow
3:38 AM 15.8 °F -1.9 °F 14.0 °F 93% 30.07 in 4.0 mi North 21.9 mph 32.2 mph N/A Snow Light Snow
3:48 AM 15.8 °F -1.1 °F 14.0 °F 93% 30.07 in 4.0 mi North 19.6 mph 27.6 mph N/A Snow Light Snow
3:58 AM 15.8 °F -1.9 °F 14.0 °F 93% 30.14 in 5.0 mi North 21.9 mph 28.8 mph 0.00 in Snow Light Snow
4:08 AM 15.8 °F -2.3 °F 14.0 °F 93% 30.07 in 4.0 mi North 23.0 mph 28.8 mph N/A Snow Light Snow
4:13 AM 15.8 °F -1.5 °F 14.0 °F 93% 30.07 in 3.0 mi North 20.7 mph 29.9 mph N/A Snow Light Snow
4:23 AM 15.8 °F -3.7 °F 14.0 °F 93% 30.08 in 3.0 mi North 27.6 mph 34.5 mph N/A Snow Light Snow
4:28 AM 14.0 °F -6.5 °F 12.2 °F 93% 30.07 in 3.0 mi North 28.8 mph 35.7 mph N/A Snow Light Snow
4:58 AM 14.0 °F -5.1 °F 12.2 °F 93% 30.16 in 2.0 mi North 24.2 mph 33.4 mph 0.00 in Snow Light Snow
4:59 AM 14.0 °F -5.5 °F 12.2 °F 93% 30.09 in 1.8 mi North 25.3 mph 33.4 mph N/A Snow Light Snow
5:39 AM 12.2 °F -7.1 °F 12.2 °F 100% 30.11 in 2.0 mi North 23.0 mph 32.2 mph N/A Snow Light Snow
5:44 AM 12.2 °F -6.3 °F 12.2 °F 100% 30.11 in 2.0 mi North 20.7 mph 32.2 mph N/A Snow Light Snow
5:49 AM 12.2 °F -5.8 °F 12.2 °F 100% 30.11 in 2.0 mi North 19.6 mph 27.6 mph N/A Snow Light Snow
5:58 AM 12.9 °F -6.1 °F 12.0 °F 96% 30.18 in 2.0 mi North 23.0 mph 29.9 mph 0.00 in Snow Light Snow
6:03 AM 12.2 °F -7.5 °F 12.2 °F 100% 30.12 in 1.8 mi North 24.2 mph 29.9 mph N/A Snow Light Snow
6:13 AM 12.2 °F -5.3 °F 12.2 °F 100% 30.12 in 2.0 mi North 18.4 mph 29.9 mph N/A Snow Light Snow
6:18 AM 12.2 °F -6.7 °F 10.4 °F 92% 30.13 in 2.5 mi North 21.9 mph 27.6 mph N/A Snow Light Snow
6:33 AM 12.2 °F -7.1 °F 10.4 °F 92% 30.13 in 3.0 mi North 23.0 mph 29.9 mph N/A Snow Light Snow
6:43 AM 12.2 °F -6.3 °F 10.4 °F 92% 30.14 in 4.0 mi North 20.7 mph 28.8 mph N/A Snow Light Snow
6:53 AM 12.2 °F -6.7 °F 10.4 °F 92% 30.15 in 4.0 mi North 21.9 mph 27.6 mph N/A Snow Light Snow
6:58 AM 12.6 °F -4.9 °F 10.8 °F 92% 30.23 in 4.0 mi North 18.4 mph 25.3 mph 0.00 in Snow Light Snow
6:59 AM 12.2 °F -6.3 °F 10.4 °F 92% 30.15 in 4.0 mi North 20.7 mph 25.3 mph N/A Snow Light Snow
7:09 AM 12.2 °F -7.5 °F 10.4 °F 92% 30.16 in 4.0 mi North 24.2 mph 28.8 mph N/A Snow Light Snow
7:14 AM 12.2 °F -5.8 °F 8.6 °F 85% 30.16 in 5.0 mi North 19.6 mph 28.8 mph N/A Snow Light Snow
7:19 AM 12.2 °F -7.5 °F 8.6 °F 85% 30.17 in 7.0 mi North 24.2 mph 32.2 mph N/A Snow Light Snow
7:24 AM 12.2 °F -5.8 °F 8.6 °F 85% 30.17 in 9.0 mi North 19.6 mph 32.2 mph N/A Snow Light Snow
7:29 AM 12.2 °F -7.5 °F 8.6 °F 85% 30.17 in 9.0 mi North 24.2 mph 32.2 mph N/A Snow Light Snow
7:34 AM 12.2 °F -7.1 °F 8.6 °F 85% 30.17 in 7.0 mi North 23.0 mph 32.2 mph N/A Snow Light Snow
7:43 AM 10.4 °F -8.2 °F 6.8 °F 85% 30.17 in 6.0 mi North 19.6 mph 29.9 mph N/A Snow Light Snow
7:53 AM 10.4 °F -9.9 °F 6.8 °F 85% 30.18 in 5.0 mi North 24.2 mph 27.6 mph N/A Snow Light Snow
7:58 AM 11.3 °F -9.1 °F 7.3 °F 84% 30.26 in 5.0 mi North 25.3 mph 31.1 mph 0.00 in Snow Light Snow
8:03 AM 10.4 °F -8.6 °F 6.8 °F 85% 30.19 in 4.0 mi North 20.7 mph 32.2 mph N/A Snow Light Snow
8:23 AM 10.4 °F -9.9 °F 6.8 °F 85% 30.20 in 5.0 mi North 24.2 mph 26.5 mph N/A Snow Light Snow
8:33 AM 10.4 °F -9.9 °F 6.8 °F 85% 30.21 in 6.0 mi North 24.2 mph 31.1 mph N/A Snow Light Snow
8:53 AM 10.4 °F -9.9 °F 6.8 °F 85% 30.22 in 2.5 mi North 24.2 mph 33.4 mph N/A Snow Light Snow
8:58 AM 10.0 °F -10.4 °F 6.4 °F 85% 30.31 in 2.0 mi North 24.2 mph 33.4 mph 0.00 in Snow Light Snow
9:08 AM 10.4 °F -8.6 °F 5.0 °F 79% 30.23 in 2.5 mi North 20.7 mph 31.1 mph N/A Snow Light Snow
9:13 AM 10.4 °F -9.5 °F 3.2 °F 73% 30.23 in 4.0 mi North 23.0 mph 31.1 mph N/A Snow Light Snow
9:26 AM 10.4 °F -10.3 °F -0.4 °F 62% 30.24 in 9.0 mi North 25.3 mph 35.7 mph N/A   Mostly Cloudy
9:30 AM 10.4 °F -8.6 °F -0.4 °F 62% 30.25 in 10.0 mi North 20.7 mph 35.7 mph N/A   Light Freezing Rain
9:35 AM 10.4 °F -9.9 °F -0.4 °F 62% 30.25 in 10.0 mi North 24.2 mph - N/A   Light Freezing Rain
9:39 AM 10.4 °F -10.7 °F -0.4 °F 62% 30.26 in 10.0 mi North 26.5 mph - N/A   Scattered Clouds
9:58 AM 11.1 °F -10.0 °F -2.2 °F 55% 30.34 in 10.0 mi North 27.6 mph 33.4 mph 0.00 in   Clear
10:58 AM 12.4 °F -7.6 °F -3.5 °F 49% 30.37 in 10.0 mi North 25.3 mph - N/A   Clear
11:58 AM 12.2 °F -7.1 °F -3.6 °F 49% 30.38 in 10.0 mi North 23.0 mph 31.1 mph N/A   Partly Cloudy
12:58 PM 11.8 °F -7.2 °F -3.6 °F 50% 30.38 in 10.0 mi North 21.9 mph - N/A   Partly Cloudy
1:58 PM 12.6 °F -5.8 °F -2.6 °F 51% 30.42 in 10.0 mi North 20.7 mph 34.5 mph N/A   Scattered Clouds
2:58 PM 12.9 °F -5.7 °F -2.6 °F 50% 30.44 in 10.0 mi North 21.9 mph - N/A   Clear
3:58 PM 13.3 °F -3.9 °F -2.2 °F 50% 30.48 in 10.0 mi North 18.4 mph 27.6 mph N/A   Clear
4:58 PM 12.7 °F -4.6 °F -1.8 °F 52% 30.51 in 10.0 mi North 18.4 mph 28.8 mph N/A   Mostly Cloudy
5:58 PM 10.8 °F -5.0 °F -3.1 °F 54% 30.55 in 10.0 mi North 13.8 mph - N/A   Clear
6:58 PM 9.9 °F -6.1 °F -2.9 °F 56% 30.58 in 10.0 mi North 13.8 mph - N/A   Partly Cloudy
7:58 PM 8.1 °F -5.3 °F -3.3 °F 60% 30.61 in 10.0 mi North 9.2 mph - N/A   Clear
8:58 PM 6.8 °F -4.8 °F -3.5 °F 63% 30.62 in 10.0 mi North 6.9 mph - N/A   Clear
9:58 PM 6.3 °F -6.5 °F -3.1 °F 65% 30.64 in 10.0 mi North 8.1 mph - N/A   Clear
10:58 PM 6.1 °F -8.7 °F -2.9 °F 67% 30.65 in 10.0 mi North 10.4 mph - N/A   Clear
11:58 PM 5.4 °F -7.6 °F -4.4 °F 64% 30.66 in 10.0 mi North 8.1 mph - N/A   Partly Cloudy